星链-1788 (STARLINK-1788 )

导读 | 星芒AI

STARLINK-1788 是 SpaceX Starlink 项目中的一颗低轨通信卫星,属于第 5 批次(v1.5)部署的星群。该卫星于 2022 年 11 月 19 日由猎鹰 9 号火箭送入近地轨道,旨在为全球提供高速互联网服务。它运行在约 550 公里的高度,具备先进的相控阵天线和激光通信能力,以提升网络连接效率和稳定性。作为 Starlink 系统的重要组成部分,STARLINK-1788 支持 SpaceX 扩展其全球宽带覆盖的目标。

基本信息
目录编号:
46689
目录名称:
STARLINK-1788
国际标识:
2020-073V
轨道中心:
EARTH
卫星名称:
星链-1788
卫星全名:
星链-1788 (STARLINK-1788 )
卫星状态:
在轨 (已飞行1885 天)
发射日期:
2020-10-18 UTC
国别 :
美国 (US)
星等 :
--
轨道信息
数据来源 国际轨道数据
星历时间: 2025-12-16T06:24:39+0800
10小时前
查看轨道信息
半长轴: 6813.349km
偏心率: 0.0010134
轨道倾角: 53.052°
近地点辐角 95.000°
升交点赤经 261.835°
平近点角 265.216°
近地点: 428.309km
远地点: 442.119km
周期: 93.283分钟
每日圈数: 15.436963
详细信息
固有亮度:
5
最大亮度:
2.5
卫星平台:
Starlink V1.0
覆盖范围:
全球
运营商:
太空探索技术公司
运营商所在国:
美国
制造商(研发单位):
太空探索技术公司
制造商所在国:
美国
使用方式:
暂无
卫星简介
星链(Starlink)计划是由太空探索技术公司(SpaceX)提出的一个巨型低轨卫星互联网星座项目,计划在2019年至2024年间在太空搭建由约1.2万颗卫星组成的“星链”网络,其中1584颗将部署在地球上空550千米处的近地轨道,并从2020年开始工作。该卫星仍在工作。
2D轨道图
3D轨道图
轨道高度分析图
轨道倾角分析图
轨道综合分析图
查看轨道综合分析图